GFSCGP_925_rhum_264.txt.gz
RH
13 17 18 16 14 10 10 11 14 12 25 29 37 42 40 38 41 45 47 50 51 51 50 44 42 42 46 47 44 39 36 36 38 48 56 59 72 58 59 67 71 74 80 87
16 20 16 12 12 12 11 13 16 20 25 30 36 39 36 38 42 44 47 50 50 49 48 48 50 49 49 50 50 47 48 39 34 32 43 55 50 53 53 52 52 58 65 67
22 16 14 14 13 12 12 13 29 28 30 30 35 42 42 37 40 41 43 44 46 48 52 52 53 48 45 53 50 47 48 46 42 36 30 32 35 42 50 44 50 50 51 63
21 15 14 14 13 11 11 13 23 31 36 47 32 62 45 43 44 44 46 47 48 48 50 52 51 44 39 44 43 40 42 46 43 38 38 43 50 65 61 57 47 44 47 48
23 18 16 16 14 17 17 20 24 29 32 36 37 53 46 40 48 52 51 47 48 47 52 56 52 45 42 39 41 40 40 39 41 44 46 48 51 53 49 45 44 42 44 46
17 14 16 18 18 16 18 25 28 25 35 48 41 45 50 47 45 51 42 41 42 45 48 51 46 41 41 39 42 43 41 42 44 42 43 44 45 48 50 52 58 59 55 53
17 20 17 18 18 17 16 22 37 34 38 50 32 38 46 36 43 42 40 39 40 41 45 50 48 44 40 38 40 43 40 40 42 43 44 47 48 48 52 54 57 59 63 65
28 29 21 17 19 20 17 22 39 44 43 32 24 40 40 31 38 35 33 35 36 40 40 46 45 43 42 39 38 40 39 37 39 41 42 44 45 45 49 51 54 57 57 58
31 25 17 17 17 18 22 28 27 44 34 34 46 43 41 40 40 36 35 36 39 39 41 44 44 40 41 40 37 39 38 36 37 42 44 45 44 44 48 49 52 53 54 56
24 28 18 22 18 18 23 24 35 51 45 45 54 53 56 49 44 38 38 39 38 37 41 45 43 42 39 34 36 35 35 34 35 37 38 45 42 42 45 46 49 52 55 56
27 32 27 23 27 28 30 36 35 38 49 62 71 62 39 41 39 38 37 36 38 40 41 44 41 37 34 34 34 34 33 33 33 36 34 42 41 43 45 46 49 53 55 59
27 40 42 29 19 22 29 38 41 49 41 53 58 52 30 34 33 34 34 36 38 38 39 41 42 37 34 33 33 34 33 33 33 36 35 41 41 42 42 47 52 55 59 64
31 40 46 30 26 25 30 28 33 48 52 49 66 59 38 32 34 33 38 37 35 38 41 43 42 38 34 33 34 33 33 33 33 35 40 40 42 42 46 50 55 58 67 72
39 46 45 42 36 40 36 30 33 43 72 56 57 55 43 39 36 38 36 35 36 38 39 41 43 39 34 32 34 32 33 32 35 39 40 42 43 46 50 54 58 65 65 74
40 45 44 37 29 32 35 32 37 43 45 46 48 46 42 39 38 36 35 36 37 37 39 40 46 42 34 34 34 33 33 35 38 40 42 45 48 50 53 60 66 60 67 69
47 48 41 34 23 26 34 27 31 41 40 41 44 44 34 32 32 33 34 35 36 36 37 39 40 36 33 34 33 33 34 37 42 44 45 48 50 52 61 67 61 66 68 71
54 60 61 49 32 32 41 43 35 38 33 44 54 48 34 36 31 31 34 33 35 36 37 39 36 34 34 33 33 34 36 41 44 45 50 51 53 60 68 61 66 71 73 79
66 61 66 70 43 49 34 27 26 29 30 29 28 36 33 31 30 29 29 35 36 38 40 38 36 34 33 33 33 33 38 45 45 50 51 53 56 67 63 63 71 77 81 87
51 61 77 71 70 48 40 31 29 32 32 30 28 36 30 30 32 35 36 34 38 43 43 39 31 32 33 33 32 34 45 46 49 52 53 56 62 64 66 70 76 82 88 93
53 59 68 91 61 59 40 33 25 23 34 30 24 28 29 33 41 44 43 42 48 48 44 36 30 31 32 32 32 41 46 49 52 54 54 60 62 59 69 75 80 83 90 92
68 84 72 93 80 71 43 33 22 36 37 27 23 26 32 31 31 51 49 50 48 46 40 30 29 30 31 32 35 45 49 52 54 53 59 61 53 61 73 76 80 84 90 93
59 71 75 86 85 68 42 31 29 29 32 25 25 30 31 48 48 52 50 51 48 44 39 29 30 32 32 34 38 46 52 54 53 56 61 61 55 63 70 76 82 84 92 97
65 58 62 59 50 45 41 29 30 38 37 29 28 32 43 48 47 48 50 47 43 37 34 30 31 34 36 37 38 48 55 53 52 59 63 62 63 62 66 74 83 89 88 96
46 56 59 51 46 48 37 33 36 36 36 39 32 42 42 44 45 50 48 46 42 33 30 32 34 38 40 41 43 48 55 53 57 62 64 66 68 65 64 67 76 86 92 86
58 54 60 54 42 44 39 39 37 42 46 42 40 41 41 43 43 46 46 43 32 26 30 33 37 39 42 45 50 53 54 51 61 64 68 72 72 73 76 70 72 79 83 86
59 43 50 47 47 44 44 46 38 42 45 43 43 44 40 36 40 42 44 38 26 28 33 36 38 38 44 48 54 56 54 55 64 68 72 73 78 82 79 71 73 74 74 79

GFSCGP_925_rhum_267.txt.gz
RH
14 18 20 16 15 12 12 13 14 17 33 42 46 47 48 49 53 56 55 56 55 54 50 53 51 48 40 38 39 39 34 32 43 50 55 59 55 42 43 46 45 52 58 56
19 22 15 14 12 13 12 15 19 32 33 44 49 51 48 49 52 53 57 57 52 55 58 57 56 51 43 42 42 36 33 32 34 35 39 45 45 44 41 38 36 37 40 39
25 17 15 14 15 14 13 14 27 36 37 40 43 49 50 44 48 50 52 50 49 55 60 56 52 54 44 44 43 41 42 38 33 30 32 37 41 46 42 44 45 50 46 42
23 19 17 17 14 13 16 13 22 36 45 58 37 71 50 53 56 54 53 54 54 58 57 52 48 46 45 45 42 40 41 40 38 32 28 33 47 61 58 55 49 48 52 53
24 21 19 17 12 13 14 13 26 33 37 41 41 70 55 51 61 60 55 54 55 57 58 57 49 42 42 41 40 38 38 40 40 39 37 38 45 48 50 50 50 50 48 54
24 16 16 16 18 16 18 24 29 32 42 61 48 51 63 58 56 57 54 52 55 59 58 54 48 44 44 43 40 38 38 42 41 41 42 41 44 49 50 54 55 57 57 56
18 20 18 18 19 19 21 28 54 50 57 56 41 43 38 42 45 51 53 52 54 54 55 56 54 49 47 45 42 39 38 44 43 44 44 43 44 50 52 56 52 54 58 57
28 28 22 19 19 25 25 24 48 63 53 41 36 48 39 35 41 44 44 46 48 52 51 54 51 45 43 44 43 38 39 42 44 45 46 46 45 47 47 50 51 53 56 58
33 24 19 18 17 21 30 30 29 45 38 39 41 47 43 40 48 44 45 45 48 48 50 52 50 45 44 41 42 38 36 37 41 43 47 43 44 45 45 45 50 52 55 56
25 26 20 21 18 20 23 25 33 50 46 49 51 59 56 61 53 45 45 46 45 45 48 52 51 48 44 39 40 37 34 35 37 38 46 44 45 42 44 49 53 57 60 61
26 28 26 23 26 27 29 33 36 44 48 57 53 40 48 52 47 44 42 41 42 45 47 50 51 49 43 40 38 36 34 34 37 38 44 41 41 39 48 52 54 61 57 66
30 39 42 30 21 23 28 33 40 36 46 57 54 39 39 43 41 39 38 38 39 41 44 47 49 45 42 39 37 35 34 34 38 42 40 41 39 48 51 53 58 53 59 64
35 42 46 31 24 24 30 33 42 49 54 60 64 47 40 40 40 37 38 38 39 42 46 48 48 46 42 40 37 35 34 37 38 40 40 40 48 50 53 59 53 56 62 66
38 43 43 39 32 37 36 32 38 44 65 59 58 53 48 45 43 39 38 39 40 43 45 46 45 45 41 40 36 35 36 37 39 41 42 46 50 52 57 53 52 61 66 72
40 44 40 35 31 34 35 28 34 44 42 41 40 53 46 42 40 39 38 40 41 43 45 44 46 46 42 40 36 36 38 39 41 43 46 50 51 53 55 48 56 62 70 80
50 46 42 42 30 40 34 32 32 35 43 37 49 49 37 34 36 39 39 39 41 42 42 42 43 43 44 39 37 38 40 43 43 46 50 50 51 56 50 55 60 65 76 89
54 63 58 48 35 31 43 39 29 32 38 37 53 50 39 40 38 39 39 37 40 41 41 43 40 40 42 37 36 40 43 45 46 49 50 52 56 55 56 60 63 69 81 84
56 58 63 69 46 56 33 24 25 28 25 38 42 44 38 37 36 36 34 37 39 40 41 40 37 40 38 35 37 42 46 46 49 51 53 56 58 55 62 64 69 74 78 82
58 64 78 69 60 42 31 34 36 37 31 36 38 42 37 35 38 36 34 35 38 39 40 38 38 38 36 36 39 44 47 49 50 53 56 59 48 59 66 71 73 76 77 84
59 50 52 89 62 62 33 31 28 26 39 32 33 41 39 37 48 39 43 38 40 41 42 43 38 36 36 36 40 45 50 50 53 55 59 57 47 62 69 75 76 78 79 85
77 83 58 88 70 60 38 33 28 44 34 33 35 38 37 38 33 41 45 45 45 46 44 42 41 41 35 38 41 47 51 52 54 57 60 55 48 62 68 74 75 71 76 85
62 71 75 82 75 57 44 38 34 28 26 31 31 36 36 35 53 50 47 52 50 46 45 42 42 40 37 40 40 50 51 54 55 59 60 59 57 60 64 69 75 77 75 79
60 53 56 54 51 43 47 39 32 30 32 34 30 34 34 55 53 51 54 52 46 42 39 40 41 42 42 41 38 50 54 55 56 61 62 64 63 58 60 63 68 76 85 85
49 53 56 55 49 38 44 40 33 38 33 32 28 32 41 49 53 53 53 49 46 39 38 39 43 48 50 43 42 42 54 54 56 62 65 68 67 65 67 66 72 72 84 91
69 57 56 57 43 45 40 41 36 37 40 33 34 35 39 50 51 51 50 47 41 37 38 40 43 47 49 46 46 50 53 51 58 63 69 71 70 74 76 68 74 78 77 85
66 70 53 45 37 50 44 43 41 50 48 43 46 44 44 45 50 46 48 43 36 36 38 41 45 48 49 48 52 54 52 49 58 65 70 70 73 80 78 70 70 69 70 72

GFSCGP_925_rhum_270.txt.gz
RH
14 20 23 17 17 13 13 13 15 27 36 47 53 60 62 59 61 65 66 64 61 61 60 54 45 38 32 30 34 36 43 59 62 56 51 41 45 49 44 44 41 37 38 39
19 24 17 14 13 13 13 14 28 38 40 52 58 62 58 60 60 60 63 60 64 65 66 60 51 45 39 37 33 29 32 36 39 41 42 46 47 45 49 44 43 38 36 35
24 16 17 16 15 15 15 14 31 41 49 48 50 59 59 51 50 55 57 54 59 64 64 61 56 50 44 43 41 35 31 28 29 33 35 41 45 44 44 45 44 46 41 39
24 20 17 19 18 15 16 14 22 44 48 71 47 76 61 56 58 58 58 58 62 64 58 56 57 52 45 46 42 40 38 36 30 28 31 39 55 68 57 52 50 49 50 50
23 24 23 21 18 15 16 19 32 35 45 48 48 63 64 56 67 62 59 57 62 62 56 56 55 51 47 42 41 40 40 40 38 35 35 41 50 54 47 44 44 44 46 49
26 19 20 19 15 14 21 32 41 44 62 76 46 54 70 65 56 54 54 54 60 63 59 55 52 51 48 44 42 42 43 46 42 40 41 43 46 48 45 47 48 46 49 49
22 21 19 20 22 20 25 40 83 67 72 64 45 58 28 50 44 49 52 55 61 59 60 61 58 55 50 44 43 44 44 48 45 44 43 41 41 41 46 49 49 52 53 58
32 31 24 22 22 28 26 43 75 49 59 55 48 64 46 40 41 44 46 51 57 58 55 58 55 51 48 44 41 42 44 48 48 46 46 44 41 42 48 49 51 54 54 61
35 29 20 20 18 23 29 35 23 44 40 44 42 44 39 43 47 50 52 54 58 56 56 56 54 50 49 45 42 39 42 44 49 45 44 42 40 44 48 47 49 48 53 59
28 30 21 21 20 22 25 22 36 46 49 52 46 50 46 59 62 56 56 57 56 54 54 54 55 51 46 44 40 38 38 39 48 44 43 41 43 47 48 52 50 54 59 62
26 27 26 22 26 28 30 32 35 36 48 35 37 35 43 54 56 58 53 52 52 52 51 54 56 51 44 45 40 38 39 39 45 43 42 39 48 50 52 48 51 57 60 65
32 39 41 30 23 24 28 33 41 38 41 57 47 36 39 46 49 49 49 48 46 46 49 51 56 54 50 46 40 37 39 39 43 42 41 45 48 48 48 47 55 59 64 71
34 42 45 31 25 25 31 34 42 48 56 58 56 38 42 46 45 44 47 44 42 45 49 52 57 56 51 44 40 38 39 41 43 42 41 45 47 50 46 52 56 60 67 74
40 45 39 38 33 38 34 35 47 42 62 57 47 52 58 54 50 45 43 41 41 44 49 52 52 50 50 44 40 39 42 42 44 43 44 47 51 50 50 55 59 64 69 73
44 44 46 38 28 32 36 34 43 48 43 43 41 47 54 50 48 43 40 40 43 46 50 50 48 49 51 46 42 40 43 44 45 45 46 51 53 46 50 54 61 66 66 72
69 54 46 42 38 37 34 32 35 35 42 45 38 47 43 42 43 42 40 42 43 46 47 46 45 47 51 48 43 42 44 46 45 46 48 50 47 45 52 57 61 61 67 72
84 68 62 45 43 41 49 43 32 31 38 38 48 38 47 46 44 42 43 41 41 44 46 45 44 45 47 45 41 44 46 47 48 47 50 52 46 51 56 57 57 60 68 72
82 72 67 69 46 60 34 26 25 28 26 33 34 42 43 40 39 38 38 39 40 42 44 43 41 44 46 41 41 43 47 49 49 50 52 53 46 54 57 56 59 63 66 67
69 76 80 74 56 40 32 32 33 36 30 30 35 43 43 38 42 43 38 36 38 41 43 41 41 45 43 40 42 45 50 50 50 54 56 50 48 54 57 59 64 66 63 67
56 67 68 89 65 64 35 30 30 31 41 26 30 38 46 46 57 52 42 37 39 40 42 43 45 44 43 41 43 48 53 53 53 55 56 45 49 53 58 63 61 58 57 67
83 77 81 67 76 62 39 30 31 39 32 27 31 35 43 46 39 36 42 42 41 44 45 47 45 44 43 43 45 52 54 54 52 56 54 45 50 53 60 64 62 60 58 59
68 77 77 74 70 60 40 36 35 29 25 24 39 38 41 36 50 48 43 45 49 48 50 45 44 47 45 45 48 55 55 52 56 58 54 50 52 54 55 55 61 68 66 61
80 73 56 54 50 41 48 37 32 29 29 32 40 39 38 52 54 46 46 50 48 47 45 44 45 51 53 49 44 53 52 56 60 61 60 59 57 53 56 58 62 65 73 71
69 84 92 61 45 42 37 38 40 31 32 28 35 44 42 52 52 47 51 50 49 45 44 43 48 53 61 51 44 41 54 56 60 62 65 65 60 65 64 65 70 69 77 77
66 65 87 87 68 46 45 40 35 42 40 34 35 45 45 52 49 51 52 49 45 42 43 44 45 52 59 51 46 48 53 54 60 62 66 68 67 71 70 68 72 71 81 77
52 60 70 83 58 64 60 40 42 44 44 43 41 46 49 48 52 50 50 46 42 43 43 43 47 53 58 50 49 52 53 53 57 65 69 68 71 76 73 70 76 75 79 77

GFSCGP_925_rhum_276.txt.gz
RH
12 11 11 9 9 9 10 11 12 12 19 24 27 34 42 38 38 39 36 36 34 34 34 38 44 53 62 71 77 80 82 79 78 70 62 58 54 52 52 57 60 58 61 58
16 14 8 8 7 10 12 12 12 14 23 22 25 33 37 37 36 35 33 32 32 32 29 33 37 41 51 65 68 67 66 59 59 58 56 52 51 49 49 52 56 55 57 58
11 9 12 11 10 11 10 12 13 18 27 23 27 38 40 36 34 32 30 29 31 29 28 28 31 35 39 47 55 58 59 55 52 53 52 51 48 42 39 41 45 55 56 57
13 9 12 12 11 8 10 8 11 14 29 29 28 26 43 39 38 35 33 33 34 29 26 25 28 30 33 39 43 45 49 51 49 43 40 36 32 36 41 44 49 52 58 60
13 15 14 13 11 9 9 7 10 13 23 25 37 40 20 33 41 37 35 34 34 31 28 27 28 30 32 39 41 43 43 45 49 48 43 38 38 40 42 46 50 56 59 63
13 12 13 11 9 11 8 9 10 14 20 29 25 30 23 30 32 32 33 32 34 32 29 28 29 32 33 38 41 43 42 43 46 46 48 46 43 39 40 44 43 46 49 55
15 16 13 14 14 10 10 13 20 29 27 32 20 25 22 14 23 26 32 33 35 32 29 28 30 31 35 40 44 43 40 42 45 46 47 49 49 49 48 43 45 44 48 55
16 18 14 12 15 12 12 14 22 29 27 26 17 26 20 15 18 22 24 30 34 33 30 29 30 31 36 42 43 41 41 45 47 47 48 48 45 43 45 49 48 50 53 60
18 18 11 11 11 12 13 15 13 18 17 20 18 18 17 20 18 22 26 34 38 35 32 30 29 32 35 39 42 44 44 45 45 46 47 49 50 48 53 57 54 56 57 62
17 24 15 13 13 11 13 10 20 20 26 24 18 19 20 21 22 22 30 38 38 34 33 30 30 33 35 38 43 47 45 45 47 49 48 48 52 52 56 58 60 64 67 67
18 22 22 17 19 15 15 17 15 17 20 25 21 16 12 15 20 26 29 38 37 36 34 31 31 34 35 38 43 48 45 46 48 49 47 51 51 56 57 59 63 67 69 68
24 25 30 23 14 12 12 16 16 25 25 20 18 16 16 11 15 23 28 36 34 35 33 31 31 34 35 37 41 44 44 45 47 48 50 53 54 55 58 62 68 72 71 72
49 36 40 29 20 18 21 18 15 17 19 20 27 19 16 20 16 20 31 33 34 38 34 32 30 33 34 36 37 40 43 42 45 47 50 53 54 55 59 65 69 69 69 70
50 46 37 35 21 18 24 20 18 21 34 29 19 14 13 24 24 28 33 34 38 39 33 32 31 33 34 35 37 38 41 42 44 45 46 49 51 55 59 63 64 66 65 62
49 63 42 34 25 20 19 20 20 22 23 31 25 17 11 14 25 31 36 37 40 38 34 33 33 33 35 36 37 38 41 42 42 42 42 50 55 58 62 63 65 68 66 64
40 59 52 60 36 28 26 19 18 18 20 21 21 21 13 13 26 37 39 40 41 38 35 33 32 33 36 37 37 38 42 43 43 43 44 50 54 57 62 64 68 70 68 66
48 49 68 65 35 31 43 30 20 18 16 18 24 20 15 21 33 36 38 42 40 39 35 34 32 33 36 37 37 41 44 46 46 46 46 51 53 56 62 62 63 66 67 68
46 46 58 74 52 77 31 18 18 20 17 15 16 15 14 18 24 28 32 42 42 40 36 33 32 33 36 38 39 44 45 47 48 48 46 49 53 55 57 58 60 65 64 63
33 42 57 78 59 44 25 20 19 19 20 16 15 15 14 13 14 25 30 36 39 39 37 35 35 36 37 39 40 44 45 47 49 48 46 48 52 53 55 56 58 57 56 59
32 37 50 54 79 69 32 22 18 19 29 16 15 17 16 14 21 19 25 32 38 38 38 39 37 37 38 40 41 44 45 47 47 49 46 48 52 51 52 54 56 56 53 52
73 58 73 60 65 44 29 26 20 34 28 15 15 17 18 20 19 17 33 37 37 38 40 40 38 38 39 42 46 45 45 47 46 50 48 49 51 52 54 56 55 53 51 55
32 89 77 60 65 63 22 27 37 50 40 45 36 22 22 22 20 22 36 37 34 35 39 40 39 41 44 48 46 43 45 46 50 51 48 51 52 50 55 57 57 53 54 56
52 73 91 91 54 27 38 46 40 34 38 41 45 39 34 30 28 26 32 37 35 33 38 39 39 41 45 46 42 44 44 47 52 50 48 50 53 51 53 54 54 53 54 53
32 31 57 59 37 46 43 34 36 33 32 32 37 36 38 35 29 31 33 37 38 35 38 38 37 40 44 43 40 42 46 52 50 47 47 51 51 51 50 48 50 51 54 56
32 30 35 36 32 28 30 35 37 32 27 26 32 36 40 35 33 28 32 35 36 36 38 36 36 40 44 42 42 43 49 49 46 44 47 49 48 48 50 50 52 53 62 64
28 31 36 40 26 28 28 24 24 24 24 26 31 36 31 31 34 31 30 33 36 37 37 36 37 41 43 41 41 46 49 46 44 45 47 45 49 49 50 60 72 74 69 58

GFSCGP_925_rhum_279.txt.gz
RH
9 9 9 8 8 7 7 9 13 12 13 19 20 22 34 36 36 39 37 38 38 38 36 42 47 53 59 76 85 93 96 94 92 87 70 66 62 62 56 56 56 56 56 54
10 12 7 5 6 6 7 9 11 10 12 17 16 20 31 36 35 34 34 36 35 34 33 36 43 53 59 69 77 82 81 75 68 63 56 54 52 50 50 51 52 51 52 53
10 8 7 6 6 8 8 9 10 11 16 16 16 21 31 32 31 30 29 29 30 31 30 31 35 43 55 61 68 67 65 61 57 58 56 54 50 44 38 38 43 50 51 54
8 7 7 9 9 8 11 7 8 10 18 22 16 26 27 30 34 32 30 28 28 27 25 26 30 34 39 51 58 60 57 54 53 48 45 41 33 32 37 38 46 49 54 55
10 10 10 9 9 7 9 7 7 9 12 19 19 23 22 24 32 30 29 27 27 25 23 24 25 28 32 40 44 48 48 45 45 43 41 37 34 38 36 42 47 52 56 58
11 7 9 9 7 7 7 8 8 8 10 23 25 26 23 22 25 25 25 25 26 26 23 22 23 25 28 31 37 41 40 42 43 41 39 36 37 33 36 38 39 41 45 54
12 11 8 10 11 9 8 13 15 15 15 18 16 22 22 15 17 20 22 25 26 26 24 23 23 25 27 32 38 38 35 38 41 42 43 43 42 42 43 38 38 39 44 52
12 14 10 8 11 10 10 12 20 20 16 14 10 19 15 13 12 15 17 22 25 27 26 24 24 24 28 34 37 32 34 38 40 42 43 43 42 37 39 40 41 43 48 58
16 14 7 8 8 10 11 12 10 17 12 14 11 11 9 10 12 15 17 22 25 28 28 26 25 25 29 35 37 36 35 36 38 40 41 43 42 39 46 52 49 49 52 58
15 20 12 10 9 9 11 8 15 17 24 22 15 14 13 13 12 14 18 21 24 28 28 26 26 27 30 34 36 39 37 35 38 41 43 44 46 48 50 50 51 57 59 60
24 23 19 14 14 13 11 12 12 12 16 25 22 14 9 10 13 14 16 18 24 30 29 27 26 27 29 33 38 41 38 38 42 43 40 45 45 50 51 53 56 58 59 57
40 39 29 19 13 11 12 11 12 20 18 16 20 17 8 10 10 15 14 16 21 28 28 26 25 27 29 32 38 40 38 41 44 43 44 46 49 49 52 54 59 61 59 58
46 42 35 25 18 14 16 13 11 13 16 18 25 20 9 9 10 13 15 14 21 28 29 27 25 27 29 32 36 38 39 40 42 41 45 48 48 48 53 57 61 60 61 59
42 49 47 35 20 15 19 16 15 15 28 24 20 15 11 10 11 12 12 15 22 30 29 28 27 28 28 30 34 35 37 37 38 39 41 45 45 48 52 55 56 56 55 55
43 57 44 37 28 22 22 21 15 16 16 24 20 16 12 10 12 12 12 16 22 27 29 29 29 29 29 30 32 33 35 36 35 36 37 44 47 50 53 55 56 57 54 54
38 66 48 52 38 35 36 27 20 15 14 14 15 17 12 10 8 11 14 20 23 27 30 28 28 28 29 30 31 33 34 36 35 36 36 43 47 49 54 56 58 60 59 57
43 47 43 66 42 38 50 31 24 18 14 14 19 15 12 13 12 17 20 24 25 28 31 29 28 29 30 31 32 34 36 36 36 36 38 44 46 49 54 56 58 58 58 59
37 43 44 55 48 89 42 23 18 18 16 14 13 13 12 12 12 16 19 25 27 29 30 28 28 30 31 32 32 36 38 38 38 38 40 43 45 49 53 52 54 58 60 57
28 35 57 67 48 42 31 23 20 18 18 14 15 13 11 11 12 17 16 22 27 30 32 30 29 31 32 33 34 37 38 39 39 39 39 41 44 48 49 49 54 54 55 55
22 27 48 52 58 61 31 22 17 22 32 29 31 24 12 12 21 15 14 19 25 28 31 33 31 32 33 34 35 39 39 40 39 39 39 40 44 44 46 48 52 51 51 51
34 35 54 54 63 38 20 16 17 49 53 39 38 35 34 22 14 13 16 18 29 32 34 34 33 33 34 35 38 40 40 40 39 40 39 40 42 43 45 49 51 50 46 45
28 45 84 47 55 57 17 21 32 60 40 34 39 36 40 35 28 25 16 18 28 33 34 34 34 34 35 36 38 40 41 42 41 41 39 42 42 42 47 50 49 47 47 52
41 31 53 89 71 26 42 54 40 36 36 32 31 32 36 38 35 29 24 19 25 29 31 34 34 35 36 38 40 42 44 42 44 42 40 42 42 41 47 48 48 46 50 52
26 22 40 39 32 31 34 46 31 30 34 28 24 24 30 38 33 31 28 22 26 25 28 33 35 36 37 40 40 42 42 43 44 41 40 42 43 42 46 47 46 46 49 48
34 28 31 31 27 25 24 23 30 66 29 22 24 23 24 30 29 29 28 28 25 25 26 33 34 35 38 40 39 40 42 43 43 40 41 43 43 44 44 42 44 45 53 50
30 32 36 38 25 25 24 20 19 21 20 21 22 24 21 25 24 28 27 26 26 28 28 32 34 36 39 40 38 39 42 44 41 40 42 44 47 44 42 58 65 54 58 59